Weather observations for the past three days for
Salisbury, Salisbury-Ocean City Wicomico County Regional Airport
Imperial (Metric)
Date Time (edt) Wind (mph) Vis. (mi.) Weather Sky Cond. Temperature (ºF) Relative Humidity Wind Chill (°F) Heat Index (°F) Pressure Precipitation (in)
Air Dwpt 6 hour altimeter (in) sea level (mb) 1 hr 3 hr 6 hr
Max. Min.
24 09:54 NW 12 G 20 10.00 Mostly Cloudy BKN070 82.9 69.1 63% 87 29.72 1006.5
24 08:54 W 9 10.00 Overcast OVC060 82 71.1 69% 86 29.71 1006.1
24 07:54 W 10 10.00 Overcast SCT022 BKN048 OVC070 81 73.9 82.9 79 79% 86 29.7 1005.9
24 06:54 SW 12 10.00 Mostly Cloudy BKN080 80.1 73 79% 84 29.69 1005.5
24 05:54 SW 9 10.00 Partly Cloudy SCT085 79 72 79% 82 29.69 1005.5
24 04:54 SW 12 G 24 10.00 Overcast OVC085 81 73 77% 86 29.67 1004.9
24 03:54 SW 17 G 25 10.00 Mostly Cloudy BKN095 82 73 74% 87 29.67 1004.9
24 02:54 SW 18 G 35 10.00 Mostly Cloudy BKN090 82.9 73.9 74% 89 29.69 1005.4
24 01:54 SW 10 G 21 10.00 Fair CLR 82 73.9 88 80.1 77% 88 29.69 1005.4
24 00:54 S 10 G 22 10.00 Fair CLR 81 75 82% 87 29.69 1005.6
23 23:54 S 13 10.00 Mostly Cloudy FEW070 BKN110 80.1 73.9 82% 85 29.7 1005.9
23 22:54 S 10 10.00 Fair CLR 82 71.1 69% 86 29.71 1006.1
23 21:54 S 12 10.00 Fair CLR 82.9 69.1 63% 87 29.71 1006.2
23 20:54 SW 14 G 23 10.00 Fair CLR 82.9 69.1 63% 87 29.71 1006.0
23 19:54 S 17 G 28 10.00 Fair CLR 88 70 96.1 88 55% 93 29.71 1006.1
23 18:54 S 20 G 28 10.00 Fair CLR 90 70 52% 95 29.71 1006.3
23 17:54 S 23 G 33 10.00 Fair and Breezy CLR 91 71.1 52% 98 29.71 1006.1
23 16:54 S 20 G 32 10.00 Fair CLR 93.9 72 49% 102 29.72 1006.7
23 15:54 SW 20 G 30 10.00 Fair CLR 95 72 47% 103 29.74 1007.3
23 14:54 SW 22 G 32 10.00 Fair and Breezy CLR 96.1 71.1 44% 104 29.76 1008.0
23 13:54 SW 22 G 35 10.00 Fair and Breezy CLR 93.9 72 95 82.9 49% 102 29.78 1008.7
23 12:54 SW 20 G 33 10.00 Light Rain CLR 93 71.1 49% 100 29.81 1009.4
23 11:54 SW 20 G 28 10.00 Fair CLR 91.9 72 52% 100 29.82 1010.0
23 10:54 SW 12 G 23 10.00 Fair CLR 91 72 54% 99 29.84 1010.6
23 09:54 SW 16 G 25 10.00 Fair CLR 89.1 73 59% 97 29.85 1011.0
23 08:54 SW 13 G 23 10.00 Fair CLR 86 73 65% 93 29.87 1011.6
23 07:54 SW 13 G 22 10.00 Fair CLR 82.9 73 82.9 73.9 72% 89 29.89 1012.3
23 06:54 S 9 10.00 Fair CLR 78.1 73.9 87% 81 29.89 1012.4
23 05:54 S 8 10.00 Fair CLR 75 73 94% 73 29.9 1012.5
23 04:54 S 6 10.00 Fair CLR 75 73 94% 73 29.9 1012.5
23 03:54 S 6 10.00 Fair CLR 75 73.9 96% 73 29.9 1012.7
23 02:54 S 6 10.00 Fair CLR 75 73 94% 73 29.92 1013.2
23 01:54 S 6 10.00 Fair CLR 75 73 84 75 94% 73 29.93 1013.6
23 00:54 S 6 10.00 Fair CLR 75 73 94% 73 29.94 1013.9
22 23:54 S 7 10.00 Fair CLR 75.9 73 91% 76 29.95 1014.2
22 22:54 S 7 10.00 Fair CLR 77 73 88% 78 29.96 1014.7
22 21:54 S 8 10.00 Fair CLR 78.1 72 82% 80 29.97 1014.9
22 20:54 S 9 10.00 Fair CLR 80.1 72 76% 84 29.96 1014.7
22 19:54 S 10 10.00 Fair CLR 84 73 96.1 84 70% 90 29.96 1014.5
22 18:54 SW 12 10.00 Fair CLR 91 66 44% 94 29.95 1014.1
22 17:54 SW 10 10.00 Fair CLR 93 66 41% 96 29.95 1014.2
22 16:54 SW 13 10.00 Fair CLR 93.9 66 40% 97 29.97 1014.9
22 15:54 S 9 G 17 10.00 Fair CLR 93.9 64 37% 96 29.99 1015.5
22 14:54 SW 13 G 21 10.00 Fair CLR 95 64.9 37% 98 30 1015.9
22 13:54 W 14 G 22 10.00 Fair CLR 93.9 63 95 78.1 36% 95 30.02 1016.7
22 12:54 W 10 G 20 10.00 Fair CLR 93 64 38% 95 30.04 1017.2
22 11:54 W 12 10.00 Fair CLR 91.9 66.9 44% 95 30.06 1018.1
22 10:54 W 9 10.00 Fair CLR 91 69.1 49% 96 30.07 1018.2
22 09:54 SW 8 10.00 Fair CLR 87.1 70 57% 92 30.09 1018.9
22 08:54 SW 9 10.00 Fair CLR 82.9 72 70% 88 30.1 1019.3
22 07:54 SW 12 10.00 Fair CLR 78.1 73.9 78.1 69.1 87% 81 30.1 1019.3
22 06:54 SW 7 10.00 Fair CLR 73.9 73 97% 30.1 1019.6
22 05:54 SW 5 10.00 Fair CLR 71.1 70 96% 30.1 1019.6
22 04:54 Calm 10.00 Fair CLR 70 69.1 97% 30.1 1019.6
22 03:54 Calm 10.00 Fair CLR 70 69.1 97% 30.11 1019.8
22 02:54 S 3 10.00 Fair CLR 70 68 93% 30.12 1020.1
22 01:54 S 3 10.00 Fair CLR 70 66.9 82 70 90% 30.13 1020.5
22 00:54 S 3 10.00 Fair CLR 71.1 66.9 87% 30.14 1021.0
21 23:54 S 6 10.00 Fair CLR 72 68 87% 30.15 1021.2
21 22:54 S 8 10.00 Fair CLR 73 66.9 81% 30.15 1021.1
21 21:54 S 7 10.00 Fair CLR 73.9 66 76% 30.14 1020.9
21 20:54 S 8 10.00 Fair CLR 77 68 74% 79 30.13 1020.5
21 19:54 S 8 10.00 Fair CLR 82 68 91 82 63% 85 30.13 1020.4
21 18:54 SW 7 10.00 Fair CLR 86 64 48% 87 30.12 1020.1
21 17:54 S 7 10.00 Fair CLR 88 61 40% 88 30.13 1020.5
21 16:54 S 8 G 18 10.00 Fair CLR 89.1 62.1 41% 89 30.14 1020.9
21 15:54 S 13 G 17 10.00 Fair CLR 89.1 62.1 41% 89 30.15 1021.3
21 14:54 SW 6 10.00 A Few Clouds FEW047 89.1 64.9 45% 91 30.18 1022.0
21 13:54 Vrbl 7 10.00 Partly Cloudy SCT046 88 66 89.1 75.9 48% 90 30.19 1022.6
21 12:54 W 10 G 16 10.00 Partly Cloudy SCT042 86 66 51% 88 30.21 1023.3
21 11:54 W 7 10.00 Fair CLR 84.9 66 53% 87 30.23 1024.0
21 10:54 W 9 G 17 10.00 Fair CLR 84 66 55% 86 30.24 1024.2
Date Time (edt) Wind (mph) Vis. (mi.) Weather Sky Cond. Air Dwpt Max. Min. Relative Humidity Wind Chill (°F) Heat Index (°F) altimeter (in) sea level (mb) 1 hr 3 hr 6 hr
6 hour
Temperature (ºF) Pressure Precipitation (in)